Port Angeles, WA
on Sunday, December 30, 2012

Sunday
Previous Day Next Day
Daily Summary
 ActualAverageRecord
Temperature
Mean Temperature °F °F  
Max Temperature 42°F 43°F 55°F (1952)
Min Temperature 35°F 34°F 12°F (1968)
Degree Days
Heating Degree Days 26    
Moisture
Dew Point 36°F   
Average Humidity 88    
Maximum Humidity 97    
Minimum Humidity 77    
Precipitation
Precipitation 0.00 in in in ()
Wind
Wind Speed 3 mph   
Max Wind Speed 7 mph   
Max Gust Speed mph   
Visibility 10 miles   
Events     
Averages and records for this station are not official NWS values.
Key: T is trace of precipitation, MM is missing value
Source: NWS Daily Summary
Seasonal Weather Averages
Time(PST)TemperatureDew PointHumidity Pressure Visibility Wind DirectionWind SpeedGust SpeedPrecipitationEvents Conditions
12:02 AM 39.9°F 37.9°F 93% 30.23 in 10.0 miles Calm Calm - N/A   Overcast
12:53 AM 39.9°F 37.9°F 93% 30.25 in 10.0 miles Calm Calm - N/A   Overcast
1:53 AM 39.9°F 37.0°F 89% 30.24 in 10.0 miles ESE 4.6 mph - N/A   Overcast
2:53 AM 39.0°F 37.0°F 93% 30.25 in 9.0 miles Calm Calm - N/A   Overcast
3:53 AM 37.9°F 37.0°F 97% 30.27 in 10.0 miles SSW 3.5 mph - N/A   Overcast
4:04 AM 37.9°F 37.0°F 97% 30.26 in 10.0 miles SW 3.5 mph - N/A   Overcast
4:12 AM 37.9°F 37.0°F 97% 30.26 in 10.0 miles Calm Calm - N/A   Overcast
4:53 AM 39.0°F 36.0°F 89% 30.27 in 10.0 miles SW 5.8 mph - N/A   Overcast
5:53 AM 37.9°F 36.0°F 93% 30.27 in 10.0 miles SW 4.6 mph - N/A   Overcast
6:31 AM 37.9°F 36.0°F 93% 30.26 in 10.0 miles SSW 3.5 mph - N/A   Overcast
6:53 AM 37.9°F 36.0°F 93% 30.27 in 10.0 miles Calm Calm - N/A   Overcast
7:53 AM 37.9°F 35.1°F 89% 30.27 in 10.0 miles WSW 6.9 mph - N/A   Overcast
8:53 AM 37.9°F 34.0°F 86% 30.29 in 10.0 miles WSW 4.6 mph - N/A   Overcast
9:53 AM 37.9°F 34.0°F 86% 30.31 in 10.0 miles SW 4.6 mph - N/A   Overcast
10:53 AM 39.0°F 35.1°F 86% 30.32 in 10.0 miles SW 3.5 mph - N/A   Overcast
11:53 AM 41.0°F 36.0°F 82% 30.30 in 10.0 miles Calm Calm - N/A   Overcast
12:53 PM 42.1°F 36.0°F 79% 30.30 in 10.0 miles East 5.8 mph - N/A   Overcast
1:53 PM 41.0°F 36.0°F 82% 30.29 in 10.0 miles SE 5.8 mph - N/A   Overcast
2:05 PM 41.0°F 36.0°F 82% 30.28 in 10.0 miles East 4.6 mph - N/A   Overcast
2:46 PM 41.0°F 36.0°F 82% 30.28 in 10.0 miles Variable 4.6 mph - N/A   Overcast
2:53 PM 41.0°F 36.0°F 82% 30.29 in 10.0 miles East 6.9 mph - N/A   Overcast
3:04 PM 41.0°F 36.0°F 82% 30.28 in 10.0 miles ESE 5.8 mph - N/A   Overcast
3:53 PM 41.0°F 36.0°F 82% 30.28 in 10.0 miles East 6.9 mph - N/A   Overcast
4:16 PM 41.0°F 36.0°F 82% 30.27 in 10.0 miles East 6.9 mph - N/A   Overcast
4:53 PM 39.9°F 37.0°F 89% 30.27 in 10.0 miles SSE 3.5 mph - N/A   Overcast
5:53 PM 39.9°F 33.1°F 77% 30.28 in 10.0 miles Calm Calm - N/A   Overcast
6:53 PM 39.0°F 35.1°F 86% 30.27 in 10.0 miles Calm Calm - N/A   Overcast
7:53 PM 37.9°F 35.1°F 89% 30.27 in 10.0 miles Calm Calm - N/A   Overcast
8:53 PM 37.9°F 35.1°F 89% 30.27 in 10.0 miles Calm Calm - N/A   Overcast
9:30 PM 36.0°F 34.0°F 93% 30.26 in 10.0 miles South 3.5 mph - N/A   Scattered Clouds
9:53 PM 36.0°F 34.0°F 93% 30.28 in 10.0 miles Calm Calm - N/A   Partly Cloudy
10:12 PM 37.0°F 34.0°F 89% 30.27 in 10.0 miles Calm Calm - N/A   Mostly Cloudy
10:53 PM 35.1°F 33.1°F 92% 30.29 in 10.0 miles WSW 3.5 mph - N/A   Overcast
11:53 PM 36.0°F 34.0°F 93% 30.28 in 10.0 miles SW 5.8 mph - N/A   Overcast
Moon Phase
Dec. 30 Jan. 04 Jan. 11 Jan. 18 Jan. 26
Sunrise:08:04 AM (PST) Moon Rise:07:19 PM (PST)12/30
Sunset:04:29 PM (PST) Moon Set:09:04 AM (PST)12/30

Copyright © 2014 The Weather Underground, Inc.